Regional Weather Roundup
Issued by NWS

Home | Current Version | Previous Version | Graphics & Text | Print | Product List | Glossary On
Versions: 1 2 3 4 5 6 7 8 9 10 11 12 13 14 15 16 17 18 19 20 21 22 23 24 25 26 27 28 29 30 31 32 33 34 35 36 37 38 39 40 41 42 43 44 45 46 47 48 49 50
000
ASUS43 KTOP 250859
RWRKS

WEATHER ROUNDUP FOR KANSAS
NATIONAL WEATHER SERVICE GOODLAND KS
400 AM CDT MON SEP 25 2017

NOTE:  "FAIR" INDICATES FEW OR NO CLOUDS BELOW 12,000 FEET WITH NO
SIGNIFICANT WEATHER AND/OR OBSTRUCTIONS TO VISIBILITY.

KSZ001>006-013>018-027>032-041>047-251000-
NORTHWEST KANSAS

CITY           SKY/WX    TMP DP  RH WIND       PRES   REMARKS
GOODLAND       CLOUDY    51  51 100 N15       30.00R FOG
HAYS           CLOUDY    63  62  97 N5        29.88
HILL CITY      LGT RAIN  58  57  97 NE9       29.90F
RUSSELL        CLOUDY    66  64  93 NE7       29.87S
$$

KSZ061>065-074>080-084>089-251000-
SOUTHWEST KANSAS

CITY           SKY/WX    TMP DP  RH WIND       PRES   REMARKS
DODGE CITY     CLOUDY    68  66  93 S8        29.89F THUNDER
ELKHART          N/A     65  69 100 CALM        N/A
GARDEN CITY    LGT RAIN  64  61  90 W3        29.90S
GREAT BEND     MOCLDY    70  63  78 S8        29.87F
LIBERAL        TSTM      67  66  97 S10       29.89F FOG
$$

KSZ066>073-081>083-090>101-251000-
SOUTHEAST KANSAS

CITY           SKY/WX    TMP DP  RH WIND       PRES   REMARKS
CHANUTE        CLEAR     69  65  86 SE7       29.93S
COFFEYVILLE    PTCLDY    72  66  81 SE7       29.92S
HUTCHINSON     LGT RAIN  71  67  87 SE6       29.88F
MEDICINE LODGE   N/A     73  62  68 S5        29.88S
NEWTON         CLEAR     68  64  87 SE8       29.92S
PARSONS        MOCLDY    71  65  81 SE5       29.94S
WICHITA INTL   CLOUDY    71  66  84 SE9       29.89S
WICHITA JABRA  CLOUDY    71  66  84 S7        29.90S
WINFIELD       CLOUDY    73  67  81 SE7       29.91S
$$

KSZ007>012-019>026-033>040-048>060-102>105-251000-
NORTHEAST KANSAS

CITY           SKY/WX    TMP DP  RH WIND       PRES   REMARKS
CONCORDIA      CLOUDY    65  65 100 N5        29.90S
EMPORIA        CLEAR     69  64  84 S8        29.91S
LAWRENCE       CLOUDY    69  67  93 E5        29.92S
MANHATTAN      CLEAR     74  66  76 S6        29.88F
OLATHE IND     CLEAR     69  65  86 S6        29.94S
OLATHE EXE     PTCLDY    68  65  90 S3        29.94S
SALINA         PTCLDY    72  66  81 S7        29.88R
TOPEKA BILLARD CLEAR     70  68  93 E5        29.91S
TOPEKA FORBES  CLEAR     70  67  90 SE6       29.91S
$$




USA.gov is the U.S. government's official web portal to all federal, state and local government web resources and services.